[Date Prev][Date Next][Thread Prev][Thread Next][Date Index][Thread Index]
[jamsat-news:1190] jas2info #163
- From: Takayama Syuzo <takayama@bm-1.ktokai-u.ac.jp>
- Date: Tue, 7 Dec 1999 10:48:31 +0900
- References: <199911121840.CAE52990.LZNBBUBB@bm-1.ktokai-u.ac.jp>
========================   ºÇ¿·¾ðÊó   ==============================
        Last updated ¡§Tue.7-Dec.-1999 10:50 (JST) #163
====================================================================
   
     ±ÒÀ±¾ðÊ󡡣ƣϥ·¥ê¡¼¥º¤Îµ°Æ»Í×ÁÇ¡¢¥Æ¥ì¥á¥È¥ê¡¢£Ñ£Ó£Ï¤Î¾õ¶·Åù¤ò
   ¤Þ¤È¤á¤Æ¤ß¤Þ¤·¤¿¡¥
         
 ¢£ µ°Æ»Í×ÁÇ£±¡§¡Öjamsat¡Ýkeps¡§£¹£´£´¡×¤è¤ê¡¡
              SB KEPS @ AMSAT  $ORB99337.N
¡¡¡¡¡¡¡¡¡¡¡¡¡¡2Line Orbital Elements 99337.AMSAT
¡¡HR AMSAT ORBITAL ELEMENTS FOR AMATEUR SATELLITES IN NASA FORMAT
¡¡FROM WA5QGD FORT WORTH,TX December 3, 1999
¡¡SEND SUBSCRIBE/UNSUBSCRIBE TO majordomo@amsat.org ONLY
¡¡BID: ORB99337.N
¡¡DECODE 2-LINE ELSETS WITH THE FOLLOWING KEY:
¡¡1 AAAAAU 00  0  0 BBBBB.BBBBBBBB  .CCCCCCCC  00000-0  00000-0 0  DDDZ
¡¡2 AAAAA EEE.EEEE FFF.FFFF GGGGGGG HHH.HHHH III.IIII JJ.JJJJJJJJKKKKKZ
¡¡KEY: A-CATALOGNUM B-EPOCHTIME C-DECAY D-ELSETNUM E-INCLINATION F-RAAN
¡¡G-ECCENTRICITY H-ARGPERIGEE I-MNANOM J-MNMOTION K-ORBITNUM Z-CHECKSUM
¡¡TO ALL RADIO AMATEURS BT
 
¡¡¡¡FO-29
¡¡¡¡1 24278U 96046B   99335.81918435  .00000117  00000-0  15516-3 0 03158
¡¡¡¡2 24278 098.5797 264.7042 0351462 020.3815 341.0958 13.52690732162473
¡¡
 ¢£ µ°Æ»Í×ÁÇ£²¡§¡Öjamsat¡Ýkeps¡§£¹£´£´¡×¤è¤ê
               ¡¡¡¡SB KEPS @ AMSAT  $ORB99337.O
¡¡¡¡¡¡¡¡¡¡¡¡¡¡¡¡¡¡¡¡Orbital Elements  99337.OSCAR
¡¡HR AMSAT ORBITAL ELEMENTS FOR OSCAR SATELLITES
¡¡FROM WA5QGD FORT WORTH,TX December 3, 1999
¡¡SEND SUBSCRIBE/UNSUBSCRIBE TO majordomo@amsat.org ONLY
¡¡BID: ORB99337.O
¡¡TO ALL RADIO AMATEURS BT
¡¡¡¡Satellite: FO-29
¡¡Catalog number: 24278
¡¡Epoch time:      99335.81918435
¡¡Element set:    0315
¡¡Inclination:      098.5797 deg
¡¡RA of node:       264.7042 deg
¡¡Eccentricity:    0.0351462
¡¡Arg of perigee:   020.3815 deg
¡¡Mean anomaly:     341.0958 deg
¡¡Mean motion:   13.52690732 rev/day
¡¡Decay rate:       1.17e-06 rev/day^2
¡¡Epoch rev:           16247
¡¡Checksum:              328
 --------------------------¡¡¡¡FO-29¡ÊJAS-2)¤Ë´Ø¤¹¤ë¾ðÊó¡¡¡¡------------------------
¡Ìjamsat-bb¡§4810¡Í¤ËJE9PEL¶É¤ÎÏÆÅÄ¡¡Èþº¬Éס¡»á¤¬µ×¤·¤Ö¤ê¤ËFO-29¤ÎCW¥Æ¥ì¥á¥È¥ê¤Î
¥Õ¥©¡¼¥Þ¥Ã¥È¤Ë¤Ä¤¤¤ÆÅê¹Æ¤·¤Æ¤¢¤ê¤Þ¤·¤¿¤Î¤ÇºÆ·Ç¤µ¤»¤Æ¤¤¤¿¤À¤¤Þ¤·¤¿.
¡¡¡¡±ÒÀ±FO-29¤ÎCW¥Æ¥ì¥á¥È¥ê¤Î¥Õ¥©¡¼¥Þ¥Ã¥È¤Ë¤Ä¤¤¤Æ¡¢³°¹ñ¶É¤«¤éÌ䤤¹ç¤ï¤»¤¬
¡¡¤¢¤ê¤Þ¤·¤¿¡£ ¼¡¤ÎJARL¤Î¥Û¡¼¥à¥Ú¡¼¥¸¤ò¤â¤È¤Ë´ðËܤνê¤òÏÂÌõ¤·¡¢¥á¡¼¥ë¤ò
¡¡Á÷¤ê¤Þ¤·¤¿¡£(¤³¤Î¥Û¡¼¥à¥Ú¡¼¥¸¤ÎµºÜ¥ß¥¹¤ÎÉôʬ¤ÏÄûÀµ¤·¤Þ¤·¤¿¡£)
¡¡ºÇ¸å¤Ë¥µ¥ó¥×¥ë¤Î·×»»Îã¤òºÜ¤»¤Æ¤¢¤ê¤Þ¤¹¡£»²¹Í¤Þ¤Ç¡£
http://www.jarl.or.jp/Japanese/3_Fuji/jatlm.htm
-------------------------------
FO-29 CW Telemetry Frame Format
-------------------------------
HI HI 1A 1B 1C 1D 2A 2B 2C 2D 3A 3B 3C 3D 4A 4B 4C 4D 5A 5B 5C 5D 6A 6B 6C
System Status:
   bit  contents          1    0
--------------------------------
1A  0  Main Relay       OFF   ON
    1  DCM              ON   OFF
    2  SRAM             ON   OFF
    3  Packet         1200  9600 or OFF
    4  Packet         9600  1200 or OFF
    5  JTA              ON   OFF
    6  JTD              ON   OFF
    7  GAS              ON   OFF
1B  0  SAS              ON   OFF
    1  UVC              ON   OFF
    2  UVC Level         2     1
    3  PCU Mode       MANU  AUTO
    4  PCU Level         2     1 or 3
    5  PCU Level         3     1 or 2
    6  Battery Mode   TLIC  FULL
    7  Battery Logic  TLIC  FULL
1C  0  Engineering Data  ----
    1  Engineering Data  ----
    2  Engineering Data  ----
    3  Engineering Data  ----
    4  Digitalker Mode  ON   OFF
    5  Engineering Data  ----
    6  UVC ACT/PAS     ACT   PAS
    7  CPU RUN/RESET   RUN RESET
1D  Engineering Data
¡¡Analog Data and Equations:
¡¡2A  Engineering Data
¡¡2B  Engineering Data
¡¡2C  Spin Period
¡¡2D  Spin Period
¡¡3A  Attitude Status
¡¡3B  Sun Angle
¡¡3C  GAS-Z                    nT=N*490.196          [nT]
¡¡3D  GAS-X                    nT=N*490.196          [nT]
¡¡4A  Solar Current             I=N*9.804            [mA]
¡¡4B  Battery Current           I=-(2000-N*19.6)     [mA]
¡¡4C  Battery Voltage           V=N*0.10761          [V]
¡¡4D  Battery Middle Voltage    V=N*0.04817          [V]
¡¡5A  Bus Voltage               V=N*0.09804          [V]
¡¡5B  JTA Tx Power             mW=N*6.4997-98.0863   [mW]
¡¡5C  Structure Temp. 1         T=-N*0.388375+81.883 [C]
¡¡5D  Structure Temp. 2         T=-N*0.388375+81.883 [C]
¡¡6A  Structure Temp. 3         T=-N*0.388375+81.883 [C]
¡¡6B  Structure Temp. 4         T=-N*0.388375+81.883 [C]
¡¡6C  Battery Cell Temp.        T=-N*0.388375+81.883 [C]
¡¡Spin Period:
   bit
2C  0  ----
    1  ----
    2  8192 [msec]
    3  4096 [msec]
    4  2048 [msec]
    5  1024 [msec]
    6   512 [msec]
    7   256 [msec]
2D  0   128 [msec]
    1    64 [msec]
    2    32 [msec]
    3    16 [msec]
    4     8 [msec]
    5     4 [msec]
    6     2 [msec]
    7     1 [msec]
Example:
HI HI A6 07 81 77 00 9C FD CD 0C 42 79 5D 7B 47 91 8E 9C 69 C5 C3 C4 C4 BF
A6(hexadecimal) is 10100110(binary),so 1A(format) is
   bit data
1A  0   A6  0   Main Relay    ON
    1       1   DCM           ON
    2       1   SRAM          ON
    3       0   Packet       OFF
    4       0   Packet       OFF
    5       1   JTA           ON
    6       0   JTD          OFF
    7       1   GAS           ON
07(hexadecimal) is 00000111(binary),so 1B(format) is
   bit data
1B  0   07  1   SAS              ON
    1       1   UVC              ON
    2       1   UVC Level         2
    3       0   PCU Mode       AUTO
    4       0   PCU Level         1
    5       0   PCU Level         1
    6       0   Battery Mode   FULL
    7       0   Battery Logic  FULL
7B(hexadecimal) is 123(decimal),so 4A(format) is
Solar Current 123*9.804 = 1206[mA]
91(hexadecimal) is 145(decimal),so 4C(format) is
Battery Voltage 145*0.10761 = 15.6[V]
And so on.
----------------------------------------------
Name : JE9PEL/Mineo Wakita, Member of JAMSAT
Mail : je9pel@jamsat.or.jp
URL  : http://www.ne.jp/asahi/hamradio/je9pel/
QTH  : Yokohama Japan, GL:PM95TJ
Date : Dec 1, 1999
----------------------------------------------
¡¡  ---------------   FO-20(JAS-1b)¡¡-----------------------
-----------------------    FO-20¡ÊJAS-£±£â¡ËÆ»Í×ÁÇ   -------------------------------
 
 ¢£ µ°Æ»Í×ÁÇ£± ¡§½Ðŵ¤ÏFO-29¡Ö¤Õ¤¸£³¹æ¡×¤ËƱ¤¸¡¥
  
  FO-20
¡¡1 20480U 90013C   99313.97518916  .00000041  00000-0  16470-3 0 01941
¡¡2 20480 099.0238 120.9519 0540449 194.0788 164.4714 12.83258603457031
 
 ¢£ µ°Æ»Í×ÁÇ£² ¡§½Ðŵ¤ÏFO-29¡Ö¤Õ¤¸£³¹æ¡×¤ËƱ¤¸¡¥
 ¡¡
¡¡¡¡Satellite: FO-20
¡¡Catalog number: 20480
¡¡Epoch time:      99336.04038231
¡¡Element set:    0208
¡¡Inclination:      099.0255 deg
¡¡RA of node:       138.8324 deg
¡¡Eccentricity:    0.0541198
¡¡Arg of perigee:   144.0968 deg
¡¡Mean anomaly:     219.7799 deg
¡¡Mean motion:   12.83260418 rev/day
¡¡Decay rate:        3.0e-08 rev/day^2
¡¡Epoch rev:           45986
¡¡Checksum:              322              
 ==================================================================================
 £µ¡Ë£Ê£Á£Ò£Ì ¤Î¥Û¡¼¥à¥Ú¡¼¥¸¤Ë±¿ÍÑͽÄ꤬µºÜ¤µ¤ì¤Æ¤¤¤Þ¤·¤¿¤Î¤Ç¤´¾Ò²ð¤·¤Þ¤¹¡¥
       ¡Ê http://www.jarl.or.jp/Japanese/3_Fuji/uy.htm ¡Ë
        ¢£ ¤Õ¤¸£³¹æ¡¿FO¡¼29/JAS-2 ¢£  
  
¡¡¡¡¡ö¡ö¡ö¡¡±¿ÍÑͽÄê¤Ë¤Ä¤¤¤Æ¡¡¡ö¡ö¡ö¡¡¡¡¡¡¡¡ 
¡¡¡¡¡¡¡¡
¡¡ £±£±·î£²£¶Æü¡¡¡Á £±£±·î£³£°Æü¡¡¡¡¡¡¡¡ ¥Ç¥¸¥È¡¼¥«±¿ÍÑ
¡¡ £±£²·î£°£±Æü¡¡¡Á £±£²·î£±£²Æü¡¡¡¡¡¡¡¡ ¥¢¥Ê¥í¥°·Ï±¿ÍÑ
¡¡ £±£²·î£±£³Æü¡¡¡Á £±£²·î£±£¹Æü¡¡¡¡¡¡¡¡ ¥Ç¥¸¥¿¥ë·Ï£±£²£°£°£â£ð£ó¥á¡¼¥ë¥Ü¥Ã¥¯±¿ÍÑ
¡¡ £±£²·î£²£°Æü¡¡¡Á £°£±·î£±£±Æü¡¡¡¡¡¡¡¡ ¥¢¥Ê¥í¥°·Ï±¿ÍÑ
¡¡ 
¡¡¢¨¤Ê¤ª¡¤±¿ÍÑͽÄê¤ÏÅÔ¹ç¤Ë¤è¤êÊѹ¹¤¹¤ë¤³¤È¤¬¤¢¤ê¤Þ¤¹¤Î¤Ç¤´Î»¾µ´ê¤¤¤Þ¤¹¡£
£Ê£Á£Ó¡Ý£²¥Ù¥ê¥«¡¼¥É¤ò´õ˾¤ÎÊý¤Ø
¡Ö¼õ¿®¥ì¥Ý¡¼¥È¡×¤È½»½ê¡¤»á̾¤òµÆþ¤·¤Æ£¸£°±ßÀÚ¼ê¤òŽ¤Ã¤¿ÊÖ¿®ÍÑÉõÅû¤ò²¼µ¤Î¤È¤³¤í¤Ë¤ªÁ÷¤ê¤¯¤À¤µ¤¤¡£
¡¡¡¡¡¡¡¡¡¡¡¡¢©£±£·£°¡Ý£¸£°£·£³¡¡ÅìµþÅÔËÅç¶èÁã³û£±¡Ý£±£´¡Ý£µ
¡¡¡¡¡¡¡¡¡¡¡¡¡Ê¼Ò¡ËÆüËÜ¥¢¥Þ¥Á¥å¥¢ÌµÀþÏ¢ÌÁ¡¡µ»½Ñ¸¦µæ½êµ»½Ñ²Ý
¡¡¡¡¡¡¡¡¡¡¡¡¡Ö£Ê£Á£Ó¡¼£²¥Ù¥ê¥«¡¼¥É´õ˾¡×¤ÈµÆþ¤·¤Æ¤¯¤À¤µ¤¤¡£
¡Ö¼õ¿®¥ì¥Ý¡¼¥È¡×¤ÎµÆþÎã
£±¡¥Æü»þ¡¡£²¡¥¾ì½ê¡¡£³¡¥¼õ¿®¶¯ÅÙ¡¡£´¡¥Á÷¿®ÆâÍÆ¡¡£µ¡¥»ÈÍѤ·¤¿µ¡¼ï̾¡¡£¶¡¥¥¢¥ó¥Æ¥Ê¡¡£·¡¥¤½¤Î¾¡Ê¡§¤´°Õ¸«Åù¡Ë
Ãí¡Ë£¶¡¥¥¢¥ó¥Æ¥Ê¤Ï¡Ö·¿È֡פǤϤʤ¯¡¤·¿¼°¤òµÆþ¤·¤Æ¤¯¤À¤µ¤¤¡£Îã¡§¡Ö²¿¥¨¥ì¤ÎȬÌÚ¥¢¥ó¥Æ¥Ê¡×¡¤
¡¡¡¡¡¡¡Ö²¿ÃʤΣǣХ¢¥ó¥Æ¥Ê¡×¡¦¡¦¡¦¡£
¡¡¡¡£·¡¥¤´°Õ¸«¡¤¤´´¶ÁÛÅù¤ª½ñ¤¤¯¤À¤µ¤¤¡£
¡¡¡¡¼õ¿®¥ì¥Ý¡¼¥È¤Î½ñ¼°¤Ï£Á£´ÈǤÎÍÑ»æ¤ËµÆþ¤·¤Æ¤¯¤À¤µ¤¤¡£
¡¡¡¡¥Ç¥¸¥È¡¼¥«¤Î¼þÇÈ¿ô¤Ï£´£³£µ¡¥£¹£±£Í£È£ú¤Ç¤¹¡£¥Ï¥ó¥Ç¥£¡¼µ¡¤Ç¤Î¼õ¿®¤â²Äǽ¤Ç¤¹¤Î¤ÇÀ§Èó¥È¥é¥¤¤·¤Æ¤¯¤À¤µ¤¤¡£
¡¡¡¡¡¡¢¨¼õ¿®ÊýË¡¤Ï£Ê£Á£Ò£Ì£Î£Å£×£Ó£¹·î¹æ¤Ç¾Ò²ð¤·¤Æ¤¤¤Þ¤¹¡£
¡¡¡¡¡¡¥Ç¥¸¥È¡¼¥«¤ò¼õ¿®¤·¤Æ £Ê£Á£Ó¡Ý£²¥Ù¥ê¥«¡¼¥É ¤ò¤â¤é¤ª¤¦¡ª¡ª
¡¡        ¢£ ¤Õ¤¸£²¹æ¡¿£Æ£Ï¡Ý£²£°/JAS-1£â ¢£  ¡¡   
            
¡¡¡¡¡¡¡¡¡¡¡¡¡¡¡¡¡¡¡¡¡Ö¤Õ¤¸£²¹æ¡×¡¡¸½¶·                                                                                  
             
   JAS-1b/FO-20¡Ê¤Õ¤¸£²¹æ¡Ë¤ÎÉÔ¶ñ¹çȯÀ¸¤Ë¤Ä¤¤¤Æ
    JAS-1b¡Ê¤Õ¤¸£²¹æ¡Ë¤Î£Ã£×¥Æ¥ì¥á¥È¥ê¿®¹æ¤Ë¡¤£±£¹£¹£·Ç¯£±£°·î£±£²Æü£±£²»þ
 ¡Ê£Ê£Ó£Ô¡Ë¤ÎÆüËܾå¶õÄ̲á»þ¡¤£³·å¤Î¿ô»ú¤¬·«¤êÊÖ¤µ¤ì¤ë¤Ï¤º¤¬£³¸Ä¤ÎĹ²»¤Î
  ·«¤êÊÖ¤·¤È¤Ê¤Ã¤Æ¤¤¤ë¤È¤¤¤¦°Û¾ï¤¬È¯¸«¤µ¤ì¤Þ¤·¤¿¡£¤³¤ÎÉÔ¶ñ¹ç¤Ï¼¡¤ÎÄ̲á»þ
  ¤«¤é¤Ï²óÉü¤·¤Æ¤¤¤Þ¤·¤¿¤¬£±£³Æü£±£µ»þ£²£°Ê¬¤ÎÄ̲á»þ¤ËºÆ¤Ó´Ñ¬¤µ¤ì¤Þ¤·¤¿¡£
  ±ÒÀ±¤Î¥¢¥Ê¥í¥°·ÏÃæ·Ñ¥â¡¼¥Éưºî¤Ï°Û¾ï¤¬Ìµ¤¯¡¤Àµ¾ï»þ¤Î¥Æ¥ì¥á¥È¥êÆâÍÆ¤«¤é¤Ï
  ±ÒÀ±¤Îưºî¤Ë°Û¾ï¤Ïǧ¤á¤é¤ì¤Þ¤»¤ó¡£½¾¤Ã¤Æ¡¤Ä¾¤Á¤Ë±ÒÀ±¤Î¥ß¥Ã¥·¥ç¥ó¤Ë±Æ¶Á¤¹
  ¤ë¤³¤È¤Ï̵¤¤¤ÈͽÁÛ¤µ¤ì¤Þ¤¹¤Î¤Ç¡¤ÅöÌ̤ϥ¢¥Ê¥í¥°·ÏÃæ·Ñ¥â¡¼¥É¤ò·Ñ³¤·¤Þ¤¹¡£
  ±ÒÀ±¤Ï´û¤ËÂǤÁ¾å¤²¤Æ¤«¤é£·Ç¯£¸¥ö·î¤ò·Ð¤Æ¤ª¤ê¤Þ¤¹¤Î¤Ç¡¤º£¸å¤Ï´Æ»ë¤ò¶¯²½¤¹
  ¤ëͽÄê¤Ç¤¹¡£¥¢¥Þ¥Á¥å¥¢³Æ°Ì¤Î¥ì¥Ý¡¼¥È¤ò¤ªÂÔ¤Á¤·¤Þ¤¹¡¥   
  
  °Ê¾å  http://www.jarl.or.jp/Japanese/3_Fuji/fuji.htm
                                           
   =============   JAS-2 ¡Ê¤Õ¤¸£³¹æ¡Ë¤È¸½ºß¤Þ¤Ç¤Î¾ðÊó   ===========
  
  £Á¡¥ÅÅÏäˤè¤ë¤Õ¤¸£³¹æ¤Î±¿ÍѾðÊó
      ¼ÒÃÄË¡¿ÍÆüËÜ¥¢¥Þ¥Á¥å¥¢Ï¢ÌÁ¤Ë¤è¤ë¥µ¡¼¥Ó¥¹
           £Ô£Å£Ì ¡¥   £°£³¡Ý £³£¹£´£² ¡Ý £±£°£°£°
  £Â¡¥¥¢¥Þ¥Á¥å¥¢ÌµÀþ£Æ£Á£Ø¥µ¡¼¥Ó¥¹
      £Ê£Á£Ò£Ì¤Ë¤è¤ë¤Õ¤¸£³¹æ¤Îµ°Æ»¾ðÊó¡Ê¥ª¡¼¥Ó¥Ã¥È¥«¥ì¥ó¥À¡¼¡Ë
         £Æ£Á£Ø £Î£ï¡¥  £°£³¡Ý £³£²£³£³ ¡Ý£°£°£µ£µ
  £Ã¡¥£×£×£×¥Ö¥é¥¦¥¶¤Ç¾ðÊó¤ò´Êñ¤Ë¸«¤ì¤ë¿Í¤Î¤¿¤á¤Ë£Ê£Á£Ó¡Ý£²
     ¤Õ¤¸£³¹æ¤Î±ÒÀ±¤È¤·¤Æ¤Î±¿ÍѤµ¤ì¤ë¤Þ¤Ç¤Î̾Á°¡Ë¤Î³µÍס¢ÂǤÁ¾å¤²
     ¤Þ¤Ç¤Î¾õ¶·¡¢±¿ÍÑÃæ¤Ë¤ª¤±¤ë¾õ¶·¤òÀâÌÀ¤·¤¿¥Û¡¼¥à¥Ú¡¼¥¸¤ò¾Ò²ð¤·
     ¤Æ¤ª¤¤Þ¤¹¡¥
    ¡ ¼ÒÃÄË¡¿ÍÆüËÜ¥¢¥Þ¥Á¥å¥¢ÌµÀþÏ¢ÌÁ¡Ê£Ê£Á£Ò£Ì¡Ë¤Î¥Û¡¼¥à¥Ú¡¼¥¸
          http://www.jarl.or.jp/Japanese/3_Fuji
 
    ¢ ±§Ã賫ȯ»ö¶ÈÃġʣΣÁ£Ó£Ä£Á¡Ë¥Û¡¼¥à¥Ú¡¼¥¸ 
          http://www.nasda.go.jp/
         ÂǾ夲±ÒÀ±¡¡¡§Ãϵå´Ñ¬¥×¥é¥Ã¥È¥Õ¥©¡¼¥àµ»½Ñ±ÒÀ±¡ÊADEOS¡Ë 
                       ¥¢¥Þ¥Á¥å¥¢±ÒÀ±£³¹æ(JAS-2)
          http://yyy.tksc.nasda.go.jp/Home/Press/Press-j/jas-2_j.html        
  £Ä¡¥£Ê£Á£Í£Ó£Á£Ô¤Ë¤è¤ëµ°Æ»¾ðÊó¤Î³èÍÑ
        JAMSAT¤Î¥Û¡¼¥à¥Ú¡¼¥¸¤Þ¤¿¤Ïjamsat¡Ýkeps¤Îµ°Æ»Í×ÁǤè¤ê
      ±ÒÀ±¤Îµ°Æ»¾ðÊó¤òÆÀ¤ë¡¥
     £Ê£Á£Í£Ó£Á£Ô¥Û¡¼¥à¥Ú¡¼¥¸
               £Õ£Ò£Ì    http://www.jamsat.or.jp
       ¾åµ¥Û¡¼¥à¥Ú¡¼¥¸¤Ç¤Ï³ÆÃϤǹԤï¤ì¤ë¥¢¥Þ¥Á¥å¥¢ÄÌ¿®±ÒÀ±¤Ë´Ø¤¹¤ë
      ¥ß¥å¡¼¥Æ¥£¥ó¥°¤Î¤ªÃΤ餻¤äÀ¤³¦¤Î¥¢¥Þ¥Á¥å¥¢±ÒÀ±¤Ë´Ø¤¹¤ë¾ðÊó¤¬
      ËþºÜ¤µ¤ì¤Æ¤¤¤Þ¤¹¡¥
   
 =========================================================================
       £Ê£Á£Í£Ó£Á£Ô¤Î¥á¥ó¥Ð¡¼¤Î¤´¶¨ÎϤˤè¤ê£Ê£È£¶£Í£Í£Å¡Ê¹â»³ ½¨Â¤¡Ë¤¬
    ¼¹É®¡¦ÊÔ½¸¤òôÅö¤·¤Æ¤ª¤ê¤Þ¤¹¡¥¤´»ØÅ¦¤Î°Õ¸«¡¢µ¿Ìä¤ä¤³¤Î¤è¤¦¤Ë¤·¤¿¤é
    ¤È¤¤¤¦¥¢¥¤¥Ç¥¢¤¬¤¢¤ê¤Þ¤·¤¿¤é¾®¤µ¤Ê¤³¤È¤Ç¤â¤«¤Þ¤¤¤Þ¤»¤ó¤Î¤Çµ¤·Ú¤Ë²¼
    µ¥¢¥É¥ì¥¹¤Þ¤Ç¤´Ï¢Íí¤¯¤À¤µ¤¤¡¥£ê£á£í£ó£á£ô¡Ý£î£å£÷£ó¤«¤é£ê£á£ó£²
    £é£î£æ£ï¤Ø¤ÎžºÜ¤ò£Ê£È£´£Ð£È£×¶Éºä°æ¤µ¤ó¤ËôÅö¤·¤ÆÄº¤¤¤Æ¤ª¤ê¤Þ¤¹¡¥
                    E-mail : jh6mme@jamsat.or.jp : jh4phw@jamsat.or.jp
 ===============================   £Å£Î£Ä  ===============================